Orbital Elements at Epoch 2459000.5 (2020-May-31.0) TDB
Reference: JPL 31 (heliocentric ecliptic J2000)
Element | Value | Uncertainty (1-sigma) | Units |
e | .1343175988835661 | 3.2603e-08 | |
a | 3.034306902541324 | 1.5233e-08 | au |
q | 2.626746085116142 | 1.0207e-07 | au |
i | 10.85850567035267 | 4.9237e-06 | deg |
node | 185.0382482951989 | 2.0266e-05 | deg |
peri | 284.8118507430941 | 2.8173e-05 | deg |
M | 357.4057012886004 | 1.872e-05 | deg |
tp | 2459014.412499559754 (2020-Jun-13.91249956) | 0.0001004 | TDB |
period | 1930.579473945445 5.29 | 1.4538e-05 3.98e-08 | d yr |
n | .1864725098647625 | 1.4042e-09 | deg/d |
Q | 3.441867719966505 | 1.7279e-08 | au |
|
| | Orbit Determination Parameters
Additional Information
|